Rijeka, Croatia

5:38 AM CET on December 15, 2018 (GMT +0100)
Rijeka

Weather History for LDRI - October, 2018

Change the Weather History Date:

Thursday, October 11, 2018

  Actual Average Record
Temperature  
Mean Temperature 64 °F -  
Max Temperature 73 °F - - ()
Min Temperature 55 °F - - ()
Degree Days  
Heating Degree Days 1    
Growing Degree Days 14 (Base 50)    
Moisture  
Dew Point 49 °F    
Average Humidity 55    
Maximum Humidity 88    
Minimum Humidity 40    
Precipitation  
Precipitation 0.00 in - - ()
Sea Level Pressure  
Sea Level Pressure 30.16 in    
Wind  
Wind Speed 6 mph ()    
Max Wind Speed 10 mph    
Max Gust Speed -    
Visibility 6.2 miles    
Events      
T = Trace of Precipitation, MM = Missing Value Source: Averaged Metar Reports

Daily Weather History Graph

Daily Weather History Graph

Search for Another Location

Airport or City:

Astronomy

Oct. 11, 2018 Rise Set
Actual Time 7:12 AM CEST 6:24 PM CEST
Civil Twilight 6:42 AM CEST 6:53 PM CEST
Nautical Twilight 6:08 AM CEST 7:27 PM CEST
Astronomical Twilight 5:34 AM CEST 8:01 PM CEST
Moon 9:29 AM CEST (10/11) 8:04 PM CEST (10/11)
Length of Visible Light 12h 10m
Length of Day
11h 11m
Waxing Crescent, 6% of the Moon is Illuminated
Oct 11
Waxing Crescent
Oct 16
First Quarter
Oct 24
Full
Oct 31
Last Quarter
Nov 7
New

Hourly Weather History & Observations

Time (CEST) Temp. Dew Point Humidity Pressure Visibility Wind Dir Wind Speed Gust Speed Precip Events Conditions
12:00 AM 66.2 °F 41.0 °F 40% 30.15 in - ENE 9.2 mph - N/A   Clear
12:30 AM 66.2 °F 41.0 °F 40% 30.15 in - ENE 10.4 mph - N/A   Clear
1:00 AM 66.2 °F 41.0 °F 40% 30.15 in - ENE 9.2 mph - N/A   Clear
1:30 AM 64.4 °F 42.8 °F 45% 30.15 in - ENE 9.2 mph - N/A   Clear
2:00 AM 64.4 °F 42.8 °F 45% 30.15 in - ENE 8.1 mph - N/A   Clear
2:30 AM 64.4 °F 42.8 °F 45% 30.15 in - ENE 9.2 mph - N/A   Clear
3:00 AM 64.4 °F 44.6 °F 49% 30.15 in - ENE 9.2 mph - N/A   Clear
3:30 AM 64.4 °F 42.8 °F 45% 30.15 in - ENE 8.1 mph - N/A   Clear
4:00 AM 64.4 °F 46.4 °F 52% 30.15 in - ENE 8.1 mph - N/A   Clear
4:30 AM 64.4 °F 46.4 °F 52% 30.15 in - ENE 8.1 mph - N/A   Clear
5:00 AM 64.4 °F 46.4 °F 52% 30.15 in - ENE 6.9 mph - N/A   Clear
5:30 AM 64.4 °F 46.4 °F 52% 30.15 in - ENE 8.1 mph - N/A   Clear
6:30 AM 57.2 °F 48.2 °F 72% 30.15 in - Variable 2.3 mph - N/A   Clear
7:00 AM 62.6 °F 48.2 °F 59% 30.15 in - ENE 6.9 mph - N/A   Clear
7:30 AM 59.0 °F 50.0 °F 72% 30.15 in - SSE 4.6 mph - N/A   Clear
8:00 AM 59.0 °F 48.2 °F 67% 30.15 in - ESE 3.5 mph - N/A   Clear
8:30 AM 62.6 °F 50.0 °F 63% 30.15 in - ENE 3.5 mph - N/A   Clear
9:00 AM 64.4 °F 50.0 °F 59% 30.18 in - Variable 2.3 mph - N/A   Clear
9:30 AM 66.2 °F 51.8 °F 60% 30.18 in - Variable 2.3 mph - N/A   Clear
10:00 AM 68.0 °F 51.8 °F 56% 30.18 in - Variable 2.3 mph - N/A   Clear
10:30 AM 68.0 °F 51.8 °F 56% 30.18 in - WSW 3.5 mph - N/A   Clear
11:00 AM 68.0 °F 51.8 °F 56% 30.18 in - Variable 3.5 mph - N/A   Clear
11:30 AM 68.0 °F 50.0 °F 52% 30.18 in - WSW 4.6 mph - N/A   Clear
12:00 PM 69.8 °F 51.8 °F 53% 30.18 in 6.2 mi SW 4.6 mph - N/A   Partly Cloudy
12:30 PM 71.6 °F 50.0 °F 46% 30.18 in 6.2 mi West 3.5 mph - N/A   Partly Cloudy
1:00 PM 71.6 °F 51.8 °F 50% 30.15 in 6.2 mi WNW 5.8 mph - N/A   Partly Cloudy
1:30 PM 71.6 °F 51.8 °F 50% 30.15 in 6.2 mi WNW 4.6 mph - N/A   Partly Cloudy
2:00 PM 73.4 °F 50.0 °F 44% 30.15 in 6.2 mi West 4.6 mph - N/A   Partly Cloudy
2:30 PM 73.4 °F 50.0 °F 44% 30.15 in 6.2 mi West 5.8 mph - N/A   Partly Cloudy
3:00 PM 73.4 °F 50.0 °F 44% 30.15 in 6.2 mi WNW 4.6 mph - N/A   Partly Cloudy
3:30 PM 73.4 °F 50.0 °F 44% 30.15 in 6.2 mi WNW 4.6 mph - N/A   Partly Cloudy
4:00 PM 73.4 °F 48.2 °F 41% 30.12 in 6.2 mi NW 3.5 mph - N/A   Partly Cloudy
4:30 PM 73.4 °F 50.0 °F 44% 30.12 in 6.2 mi West 3.5 mph - N/A   Partly Cloudy
5:00 PM 73.4 °F 50.0 °F 44% 30.12 in 6.2 mi Variable 2.3 mph - N/A   Partly Cloudy
5:30 PM 71.6 °F 50.0 °F 46% 30.12 in 6.2 mi WNW 3.5 mph - N/A   Partly Cloudy
6:00 PM 68.0 °F 55.4 °F 64% 30.15 in 6.2 mi Variable 2.3 mph - N/A   Partly Cloudy
6:30 PM 68.0 °F 48.2 °F 49% 30.15 in - ENE 4.6 mph - N/A   Clear
7:00 PM 68.0 °F 50.0 °F 52% 30.15 in - ENE 4.6 mph - N/A   Clear
7:30 PM 64.4 °F 51.8 °F 64% 30.15 in - ESE 3.5 mph - N/A   Clear
8:00 PM 64.4 °F 51.8 °F 64% 30.18 in - East 3.5 mph - N/A   Clear
8:30 PM 60.8 °F 51.8 °F 72% 30.18 in - ENE 3.5 mph - N/A   Clear
9:00 PM 60.8 °F 51.8 °F 72% 30.18 in - Variable 1.2 mph - N/A   Clear
9:30 PM 64.4 °F 51.8 °F 64% 30.18 in - Variable 1.2 mph - N/A   Clear
10:00 PM 60.8 °F 51.8 °F 72% 30.18 in - Calm Calm - N/A   Clear
10:30 PM 59.0 °F 51.8 °F 77% 30.18 in - Variable 1.2 mph - N/A   Clear
11:00 PM 55.4 °F 51.8 °F 88% 30.18 in - Variable 3.5 mph - N/A   Clear
11:30 PM 57.2 °F 48.2 °F 72% 30.18 in - Variable 3.5 mph - N/A   Clear